カタログに戻る

BREEZE-M R/B

運用中HEO
NORAD 42935·ROCKET BODY·🇷🇺 Russia

打ち上げ Sep 11, 2017 から Baikonur Cosmodrome

Loading…

次のパス (今後24時間)

TLE

最新Source: Space-Track

元期: Sep 14, 2026, 06:04 UTC

1 42935U 17053B   26257.25343911 -.00000141  00000-0  00000+0 0  9995
2 42935  23.6328  36.6895 5943898 353.8564   1.1210  2.19135350 72100

AllMySatでBREEZE-M R/Bをリアルタイム追跡

Download on the App Store